Regional Weather Roundup
Issued by NWS

Home | Current Version | Previous Version | Graphics & Text | Print | Product List | Glossary On
Versions: 1 2 3 4 5 6 7 8 9 10 11 12 13 14 15 16 17 18 19 20 21 22 23 24 25 26 27 28 29 30 31 32 33 34 35 36 37 38 39 40 41 42 43 44 45 46 47 48 49 50
000
ASUS43 KLOT 251102
RWRIL

ILLINOIS REGIONAL WEATHER ROUNDUP
NATIONAL WEATHER SERVICE CHICAGO/ROMEOVILLE IL
600 AM CDT SAT APR 25 2015

NOTE: "FAIR" INDICATES FEW OR NO CLOUDS BELOW 12,000 FEET WITH NO
SIGNIFICANT WEATHER AND/OR OBSTRUCTIONS TO VISIBILITY.

* THESE STATIONS ARE NOT UNDER NWS QUALITY CONTROL. THEY ALSO MAY NOT
  REPORT WEATHER SUCH AS PRECIPITATION OR FOG.

ILZ001-002-007-009-015-016-024-251200-
NORTHWEST ILLINOIS

CITY           SKY/WX    TMP DP  RH WIND       PRES   REMARKS
MOLINE         LGT RAIN  43  40  89 E17G28    29.69S FOG
STERLING*      CLOUDY    43  37  81 E17       29.73F
$$

ILZ003-004-008-010-011-017-018-251200-
NORTH CENTRAL ILLINOIS

CITY           SKY/WX    TMP DP  RH WIND       PRES   REMARKS
ROCKFORD       CLOUDY    44  36  73 E13       29.79F
FREEPORT*      CLOUDY    41  37  84 E12       29.79F
$$

ILZ005-006-012>014-019>023-251200-
NORTHEAST ILLINOIS

CITY           SKY/WX    TMP DP  RH WIND       PRES   REMARKS
CHICAGO-OHARE  CLOUDY    43  37  79 E12       29.80R
CHICAGO-MIDWAY CLOUDY    46  40  79 E15       29.80R
AURORA         CLOUDY    45  38  76 E15       29.77S
LANSING*       LGT RAIN  45  37  73 E13       29.79R
WAUKEGAN       CLOUDY    40  37  89 E9        29.84R
DUPAGE AIRPORT CLOUDY    44  38  79 E16       29.77S
WHEELING       CLOUDY    43  37  79 E8        29.83R
NORTHERLY ISL    N/A     43  39  86 NE10        N/A
$$

LMZ740>746-251200-
SOUTHERN LAKE MICHIGAN

STATION/POSITION SKY/WX   TEMP    WIND        PRES    VSBY  WAVE
                          AIR SEA DIR/SP/G                  HT/PER
                          (F)     (DEG/KT/KT) (MB)    (MI)  (FT/S)
HARRISON CRIB              41      80/ 21/ 24   N/A
BURNHAM HARBOR             43      60/ 12/ 13   N/A
CALUMET HARBOR             44      70/ 14/ 17   N/A
BURNS HARBOR               46      90/ 12/ 21 1009.8F
MICHIGAN CITY              44      70/ 14/ 16   N/A
MICHIGAN CITY 6N           45 44  110/ 14/ 19   N/A           3/ 4
$$

ILZ025>027-034>036-040-047-049-050-058-095>099-251200-
WEST-CENTRAL ILLINOIS

CITY           SKY/WX    TMP DP  RH WIND       PRES   REMARKS
QUINCY         LGT RAIN  50  48  93 E14       29.55F FOG
MACOMB*        RAIN      48  46  91 E10       29.65R
$$

ILZ028>032-037-038-041>044-048-051>054-059>061-251200-
CENTRAL ILLINOIS

CITY           SKY/WX    TMP DP  RH WIND       PRES   REMARKS
DECATUR        CLOUDY    51  45  79 E13       29.66F
PEORIA         CLOUDY    50  44  80 E10       29.66S
LINCOLN*       CLOUDY    52  45  78 E12       29.63F
SPRINGFIELD    CLOUDY    53  44  71 SE13      29.62F
TAYLORVILLE    NOT AVBL
$$

ILZ033-039-045-046-055>057-062-063-251200-
EAST-CENTRAL ILLINOIS

CITY           SKY/WX    TMP DP  RH WIND       PRES   REMARKS
CHAMPAIGN      CLOUDY    50  45  83 E14       29.68F
MATTOON        CLOUDY    52  44  74 SE9       29.66F
$$

ILZ079-100>102-251200-
SOUTHWEST ILLINOIS

CITY           SKY/WX    TMP DP  RH WIND       PRES   REMARKS
BELLEVILLE     CLOUDY    54  54 100 SE6       29.60F
CAHOKIA*       LGT RAIN  55  54  96 SE10      29.58F FOG
SPARTA*        CLOUDY    54  53  97 SE8       29.62F FOG
$$

ILZ064>066-069>071-074>076-080>082-084>086-088>090-092>094-251200-
SOUTH-CENTRAL ILLINOIS

CITY           SKY/WX    TMP DP  RH WIND       PRES   REMARKS
CARBONDALE     CLOUDY    56  52  86 SE6       29.63F
MT. VERNON     CLOUDY    54  45  71 E5        29.65F
SALEM*         CLOUDY    54  48  78 SE3       29.64F
$$

ILZ067-068-072-073-078-083-087-091-251200-
SOUTHEAST ILLINOIS

CITY           SKY/WX    TMP DP  RH WIND       PRES   REMARKS
LAWRENCEVILLE  CLOUDY    52  48  86 E10       29.68F
HARRISBURG*    CLOUDY    57  52  84 E7        29.66S
ROBINSON*      LGT RAIN  52  47  84 E6        29.71S
CARMI*         RAIN      53  47  79 E6        29.67S
$$

ABBREVIATIONS USED IN REMARKS
   TC - TEMPERATURE IN CELSIUS
  WCI - WIND CHILL INDEX
   HX - HEAT INDEX
  VSB - VISIBILITY
$$




USA.gov is the U.S. government's official web portal to all federal, state and local government web resources and services.